Temp
13 13 13 13 13 13 13 13 13 13 13 13 13 13 12 12 13 12 12 11 11 11 11 10 11 11 12 13 13 14 14 14 13 11 10 10 11 12 13 13 13 13 13 12 11 11 10 10 10 10 10 10
13 13 13 13 13 13 13 13 12 13 13 13 13 13 12 12 12 12 11 11 11 11 11 11 11 11 12 12 13 13 14 14 13 11 10 10 10 12 13 13 12 12 12 12 11 10 10 10 10 10 9 9
13 13 13 13 13 13 13 12 12 12 13 13 13 13 12 12 12 12 11 11 11 11 11 11 11 11 11 12 12 13 13 14 12 11 10 10 10 11 12 12 12 11 11 11 11 10 10 10 10 10 9 9
13 13 13 13 13 13 13 12 12 12 12 12 12 12 12 12 12 11 11 11 11 11 11 11 11 11 11 12 12 12 13 13 12 11 10 10 10 11 11 11 11 11 11 11 10 10 10 9 9 9 9 8
13 13 13 13 13 13 12 12 12 12 12 12 12 12 12 12 12 11 11 11 11 11 11 11 11 11 11 11 11 12 12 12 12 11 10 10 10 11 10 10 10 10 10 10 10 10 9 9 9 9 8 8
13 13 13 13 12 13 12 12 12 12 12 12 12 12 12 12 12 12 11 11 11 11 11 11 11 11 11 11 11 12 12 12 11 10 9 10 10 9 9 9 9 9 9 9 9 9 9 9 9 9 8 8
13 13 13 13 12 12 12 12 13 12 12 12 12 12 12 12 12 12 12 11 11 11 11 11 11 11 11 11 11 11 12 11 11 11 10 10 9 8 8 9 8 9 9 9 9 9 9 9 9 9 8 8
13 13 13 13 12 12 12 12 12 12 12 12 12 12 12 12 12 12 12 11 11 11 11 11 11 11 11 11 11 11 12 11 11 11 11 10 8 8 8 8 8 8 8 8 8 9 9 9 9 9 9 9
13 13 13 13 12 12 12 12 12 12 12 12 12 12 12 12 12 12 12 12 11 11 11 11 11 11 10 10 11 11 11 11 11 10 10 9 8 8 8 8 8 8 8 8 8 8 8 9 9 9 9 9
12 12 13 13 12 12 12 12 12 12 12 12 12 12 12 12 12 12 12 12 11 11 11 11 10 10 10 10 10 10 11 11 11 11 10 10 8 7 8 8 8 7 7 8 8 8 8 8 9 8 8 9
12 12 13 13 12 12 12 12 12 12 12 13 12 12 12 12 12 12 12 12 11 11 11 10 10 10 10 10 10 10 10 11 11 10 10 10 8 7 7 7 7 7 7 7 7 7 7 7 8 8 8 8
12 12 12 12 12 12 12 12 12 12 12 12 12 12 12 12 12 12 12 12 11 11 11 11 10 10 10 10 10 10 10 10 10 10 10 10 8 7 7 7 7 7 7 7 7 7 7 7 7 8 8 7
12 12 12 12 12 12 12 12 12 12 12 12 11 12 11 11 12 12 11 11 11 11 11 11 10 10 10 10 10 10 10 9 9 10 9 9 8 7 7 7 7 7 7 7 7 7 7 7 7 7 8 7
11 11 12 12 12 12 12 12 12 11 12 12 12 11 11 11 11 11 11 11 11 11 11 11 10 10 10 10 10 10 9 9 9 9 9 9 8 7 7 7 7 6 6 6 6 6 6 6 6 7 7 7
11 11 11 11 12 12 12 12 12 11 11 11 11 11 11 11 11 11 11 11 11 11 11 10 9 9 9 9 9 9 9 8 8 8 8 8 7 6 6 6 6 6 6 6 6 6 6 6 6 6 7 6
10 10 10 11 11 11 12 12 11 11 11 11 11 11 11 10 10 11 11 10 10 10 10 10 9 9 9 9 9 9 8 8 8 7 7 7 6 6 6 6 6 6 6 6 6 6 5 5 5 6 6 6
10 10 10 10 11 11 11 11 11 11 11 11 11 10 10 10 10 10 10 10 10 10 10 9 9 9 9 9 8 8 8 7 7 7 7 6 6 5 5 5 5 5 5 5 5 5 5 5 5 5 5 6
10 10 10 10 10 10 10 11 11 11 11 11 11 10 10 10 9 9 9 9 10 10 9 9 9 8 8 8 8 8 7 7 7 6 6 6 5 5 5 5 5 5 5 5 5 5 5 5 5 5 5 5
10 10 10 10 10 10 10 10 10 10 10 10 10 11 11 10 9 8 8 8 9 9 9 8 8 8 8 8 7 7 6 6 6 6 6 6 5 5 4 4 5 5 5 5 5 5 5 5 5 5 5 5
10 10 10 10 10 10 10 9 9 10 10 9 9 10 11 10 10 9 8 8 8 9 8 7 7 7 7 7 7 6 5 5 5 5 5 5 5 5 4 4 4 4 4 5 5 4 4 4 5 5 5 5
10 10 9 9 9 10 10 9 9 9 9 9 9 9 9 10 10 10 9 7 7 8 8 7 7 8 8 7 7 6 5 5 5 5 5 4 4 4 5 4 4 4 4 4 4 4 4 4 4 4 4 4
9 9 9 9 9 9 9 9 9 9 9 9 9 9 9 9 9 9 9 7 7 8 8 7 8 8 8 8 7 7 6 5 4 4 4 4 3 3 4 4 4 4 4 4 4 4 4 4 4 4 4 4
8 8 8 8 8 8 9 9 9 9 9 9 9 9 9 8 8 8 8 8 8 8 8 8 7 7 8 8 8 7 6 5 5 3 3 3 3 3 3 3 4 4 4 4 4 4 4 4 3 3 3 3
7 7 8 8 8 8 8 8 8 9 9 9 8 8 8 8 7 7 8 7 7 8 8 8 7 7 7 7 7 7 7 6 5 4 3 3 3 3 3 3 3 4 4 4 4 3 3 3 3 2 2 2
7 7 7 7 7 7 8 8 8 8 8 8 8 8 8 8 7 7 7 7 7 8 8 7 6 6 6 6 6 6 6 6 5 4 3 3 3 3 3 3 3 3 3 3 3 3 2 2 2 2 2 1
7 7 7 7 7 7 7 7 7 8 8 8 8 8 8 7 7 7 7 7 7 7 7 6 5 5 6 6 6 6 6 6 5 4 3 3 3 2 3 3 3 2 2 2 3 3 2 1 1 0 0 -0
6 7 7 7 7 7 6 7 7 7 7 7 8 8 8 7 7 7 7 7 7 6 6 5 4 5 6 6 5 5 5 5 5 4 3 3 3 3 2 2 2 2 1 1 1 2 1 -0 -1 -2 -2 -2
6 6 6 6 6 6 6 6 6 6 6 7 7 7 7 7 7 7 7 7 7 6 5 5 4 4 5 5 4 4 4 4 4 4 3 2 2 3 3 2 1 1 0 0 0 0 -0 -1 -2 -3 -3 -3
5 5 5 6 6 6 6 5 5 6 6 6 6 7 7 7 7 7 6 6 6 6 5 5 4 4 4 4 4 4 4 3 4 4 3 3 2 2 2 2 1 1 -0 -1 -0 -0 -0 -2 -2 -2 -2 -2
4 5 5 5 5 5 5 5 5 5 5 6 6 6 6 7 7 6 6 6 5 5 5 5 5 5 4 4 4 4 4 3 3 3 3 2 2 2 1 1 1 1 0 -0 -0 -0 0 -1 -1 -1 -1 -2
4 4 4 4 4 4 4 4 4 4 4 5 5 5 5 5 5 5 5 5 5 5 4 5 5 5 4 4 4 3 3 3 2 2 2 2 2 1 1 1 1 1 0 -0 -0 -1 -1 -1 -1 -2 -2 -3
Height
1544 1545 1546 1547 1548 1549 1550 1551 1552 1553 1554 1554 1555 1557 1557 1558 1559 1559 1558 1558 1558 1558 1559 1560 1562 1563 1563 1563 1563 1563 1564 1565 1565 1567 1568 1568 1568 1569 1569 1570 1571 1571 1572 1572 1573 1573 1574 1574 1574 1575 1574 1573
1542 1543 1544 1546 1546 1547 1548 1549 1550 1551 1552 1553 1554 1555 1555 1556 1557 1557 1557 1556 1557 1558 1559 1560 1561 1563 1563 1563 1563 1563 1564 1565 1565 1566 1567 1568 1568 1568 1569 1570 1570 1571 1571 1572 1573 1573 1574 1574 1575 1574 1574 1573
1541 1542 1543 1544 1545 1545 1547 1548 1549 1550 1550 1552 1552 1553 1554 1554 1554 1555 1555 1555 1556 1557 1558 1559 1561 1562 1562 1562 1563 1563 1564 1564 1564 1565 1566 1567 1566 1567 1568 1569 1570 1571 1571 1572 1572 1573 1574 1574 1575 1575 1575 1574
1539 1541 1542 1543 1543 1544 1545 1546 1547 1548 1549 1550 1551 1551 1552 1552 1552 1553 1554 1554 1555 1556 1557 1559 1560 1561 1562 1562 1562 1563 1563 1564 1564 1565 1566 1566 1565 1566 1567 1568 1569 1570 1570 1571 1572 1572 1573 1573 1575 1575 1574 1572
1538 1538 1540 1541 1541 1542 1543 1544 1545 1546 1547 1548 1548 1549 1550 1550 1550 1550 1551 1553 1554 1555 1556 1557 1559 1560 1561 1562 1561 1562 1562 1563 1563 1564 1566 1565 1564 1565 1567 1568 1568 1569 1570 1570 1571 1571 1571 1572 1572 1572 1571 1570
1537 1537 1538 1539 1540 1540 1540 1541 1542 1543 1544 1546 1547 1547 1548 1547 1547 1548 1549 1550 1552 1553 1555 1556 1557 1558 1560 1561 1560 1561 1562 1562 1563 1563 1564 1563 1564 1565 1567 1567 1568 1569 1569 1569 1569 1570 1570 1570 1569 1569 1569 1570
1535 1536 1537 1538 1539 1539 1539 1539 1540 1541 1542 1544 1545 1546 1546 1545 1545 1546 1547 1548 1550 1552 1554 1555 1555 1556 1558 1559 1559 1560 1561 1562 1562 1562 1562 1562 1564 1565 1566 1567 1568 1568 1568 1568 1568 1568 1568 1568 1567 1568 1569 1570
1533 1536 1536 1536 1537 1537 1538 1538 1539 1540 1541 1542 1543 1544 1544 1544 1544 1545 1545 1547 1549 1551 1552 1553 1553 1554 1555 1557 1557 1558 1560 1561 1561 1561 1562 1562 1563 1564 1565 1566 1567 1567 1567 1567 1567 1567 1567 1567 1566 1567 1568 1569
1533 1535 1534 1533 1534 1535 1536 1537 1537 1538 1539 1541 1541 1542 1541 1541 1543 1544 1545 1546 1547 1548 1550 1550 1551 1552 1553 1555 1555 1556 1558 1559 1560 1561 1561 1562 1562 1563 1564 1565 1566 1566 1565 1565 1566 1566 1566 1566 1565 1565 1567 1568
1531 1532 1532 1531 1531 1532 1533 1534 1534 1535 1537 1539 1539 1539 1539 1540 1541 1541 1542 1543 1544 1545 1547 1548 1549 1550 1551 1553 1553 1554 1555 1557 1558 1559 1560 1560 1561 1561 1562 1563 1564 1564 1564 1564 1565 1565 1565 1564 1563 1564 1566 1567
1530 1531 1531 1531 1530 1531 1532 1532 1533 1533 1535 1536 1536 1537 1538 1538 1539 1538 1538 1539 1541 1543 1545 1546 1548 1548 1549 1551 1552 1552 1553 1554 1555 1556 1557 1558 1559 1560 1560 1561 1562 1562 1562 1563 1563 1563 1563 1563 1563 1563 1564 1565
1529 1529 1530 1530 1530 1531 1531 1531 1531 1532 1534 1534 1534 1535 1536 1537 1537 1535 1535 1535 1538 1541 1542 1544 1545 1546 1548 1549 1550 1551 1551 1552 1553 1554 1555 1556 1557 1558 1559 1560 1560 1560 1561 1562 1562 1562 1562 1562 1561 1562 1563 1564
1527 1528 1528 1529 1530 1530 1530 1529 1530 1531 1532 1533 1533 1534 1534 1535 1535 1534 1534 1534 1536 1538 1540 1541 1543 1544 1545 1547 1548 1549 1549 1550 1550 1551 1552 1553 1554 1557 1558 1559 1560 1560 1561 1562 1562 1562 1561 1561 1561 1562 1563 1563
1526 1526 1527 1527 1528 1529 1529 1529 1530 1529 1529 1530 1531 1532 1532 1532 1533 1534 1534 1535 1536 1536 1537 1538 1540 1542 1543 1544 1545 1546 1547 1548 1548 1549 1550 1550 1553 1555 1556 1557 1558 1559 1560 1560 1560 1560 1560 1559 1560 1561 1562 1563
1524 1525 1525 1526 1527 1528 1528 1529 1529 1528 1526 1526 1527 1529 1531 1530 1531 1532 1533 1534 1534 1534 1535 1536 1538 1540 1541 1542 1543 1545 1545 1546 1547 1548 1548 1549 1551 1553 1554 1555 1556 1557 1558 1559 1559 1559 1559 1558 1558 1560 1562 1562
1523 1523 1524 1524 1525 1525 1526 1527 1528 1528 1526 1525 1526 1527 1527 1528 1528 1529 1530 1532 1532 1532 1533 1535 1537 1539 1540 1540 1541 1542 1543 1544 1545 1547 1547 1548 1550 1551 1552 1553 1554 1555 1556 1557 1557 1557 1558 1558 1558 1559 1561 1561
1521 1521 1522 1522 1523 1524 1524 1525 1526 1527 1528 1527 1527 1526 1524 1525 1527 1528 1529 1530 1530 1530 1531 1533 1535 1537 1538 1539 1540 1541 1541 1542 1543 1545 1545 1547 1548 1550 1551 1552 1552 1553 1554 1555 1556 1556 1557 1557 1558 1558 1559 1560
1520 1520 1521 1521 1522 1523 1523 1524 1524 1525 1526 1526 1526 1526 1526 1525 1525 1525 1526 1528 1528 1528 1530 1531 1533 1534 1535 1537 1539 1540 1540 1541 1541 1543 1544 1545 1547 1548 1550 1550 1550 1551 1553 1554 1555 1555 1556 1557 1557 1558 1558 1559
1519 1519 1520 1520 1521 1521 1522 1522 1523 1523 1524 1524 1522 1523 1525 1525 1525 1524 1524 1525 1526 1527 1528 1530 1531 1532 1533 1535 1537 1539 1539 1540 1540 1542 1543 1544 1545 1547 1548 1548 1549 1550 1552 1553 1554 1554 1555 1556 1556 1557 1558 1559
1519 1519 1519 1520 1520 1520 1521 1521 1522 1522 1523 1523 1522 1521 1522 1523 1524 1525 1525 1524 1524 1526 1528 1530 1530 1530 1531 1532 1535 1537 1538 1539 1540 1541 1542 1543 1544 1545 1546 1547 1547 1549 1550 1551 1552 1553 1554 1555 1555 1556 1557 1558
1518 1518 1519 1519 1520 1520 1520 1521 1521 1522 1523 1523 1522 1522 1522 1522 1522 1523 1524 1524 1523 1524 1527 1530 1530 1529 1530 1531 1533 1535 1536 1538 1540 1541 1542 1542 1543 1544 1545 1546 1546 1547 1548 1549 1550 1552 1553 1554 1554 1555 1556 1557
1517 1517 1518 1518 1519 1519 1519 1520 1520 1521 1521 1521 1521 1521 1521 1522 1522 1521 1522 1523 1524 1525 1527 1529 1530 1530 1530 1531 1532 1532 1533 1536 1538 1540 1541 1542 1543 1544 1544 1544 1545 1546 1547 1548 1549 1550 1551 1552 1553 1554 1555 1556
1517 1517 1517 1517 1517 1518 1518 1519 1519 1519 1519 1520 1519 1519 1519 1519 1520 1521 1520 1521 1522 1524 1526 1527 1528 1529 1529 1530 1530 1530 1531 1534 1537 1539 1541 1542 1542 1542 1543 1544 1545 1545 1546 1547 1548 1549 1550 1551 1551 1552 1553 1554
1515 1516 1516 1516 1516 1516 1516 1517 1517 1518 1518 1518 1518 1518 1518 1518 1518 1519 1520 1520 1520 1522 1525 1526 1526 1526 1527 1528 1528 1528 1529 1532 1535 1538 1540 1541 1541 1541 1542 1544 1545 1545 1545 1546 1547 1548 1549 1549 1550 1551 1552 1552
1513 1514 1514 1514 1515 1514 1515 1515 1515 1515 1516 1516 1517 1517 1517 1517 1518 1518 1519 1520 1520 1521 1522 1523 1523 1524 1525 1527 1528 1527 1528 1530 1533 1536 1537 1539 1541 1541 1541 1543 1544 1545 1545 1546 1547 1547 1548 1548 1549 1550 1550 1551
1511 1512 1512 1512 1513 1513 1513 1513 1513 1513 1513 1513 1514 1515 1515 1515 1516 1517 1517 1518 1519 1520 1520 1520 1521 1522 1523 1525 1526 1526 1526 1528 1530 1533 1534 1536 1537 1538 1539 1540 1541 1542 1543 1544 1545 1545 1546 1547 1548 1549 1549 1550
1509 1509 1510 1510 1510 1511 1511 1511 1512 1511 1511 1511 1511 1512 1513 1514 1514 1516 1516 1517 1518 1519 1519 1519 1520 1520 1520 1521 1522 1523 1524 1525 1528 1530 1532 1533 1534 1535 1536 1537 1539 1540 1541 1542 1542 1543 1545 1545 1546 1548 1548 1549
1507 1508 1508 1508 1508 1509 1509 1509 1509 1509 1509 1510 1510 1510 1511 1512 1512 1514 1515 1515 1516 1516 1517 1517 1518 1519 1519 1521 1521 1522 1524 1525 1525 1528 1530 1531 1532 1532 1533 1534 1535 1537 1539 1540 1541 1542 1544 1545 1545 1546 1546 1548
1506 1506 1506 1506 1506 1507 1507 1507 1507 1507 1507 1508 1508 1508 1508 1509 1510 1511 1512 1513 1513 1513 1514 1515 1516 1518 1519 1520 1521 1522 1524 1524 1524 1525 1527 1528 1529 1530 1530 1531 1533 1535 1536 1538 1540 1541 1541 1542 1542 1542 1543 1546
1504 1504 1504 1504 1504 1505 1505 1505 1505 1505 1505 1506 1506 1506 1506 1506 1507 1508 1509 1510 1511 1511 1512 1513 1514 1515 1517 1518 1519 1519 1520 1522 1523 1523 1525 1526 1527 1528 1529 1530 1532 1533 1534 1536 1537 1538 1537 1537 1537 1537 1539 1542
1502 1503 1503 1503 1503 1503 1503 1503 1504 1504 1504 1504 1504 1504 1504 1504 1504 1505 1506 1507 1508 1509 1510 1511 1511 1512 1513 1514 1515 1516 1517 1519 1520 1521 1522 1524 1525 1526 1527 1528 1529 1530 1531 1532 1534 1534 1534 1535 1535 1535 1537 1538
Wind_Speed
28 28 27 25 23 21 19 21 23 23 24 23 22 21 21 22 22 24 26 26 26 25 24 21 17 13 12 12 13 15 16 14 14 13 11 10 10 12 13 13 14 15 15 16 16 16 16 16 16 14 11 11
29 29 28 26 23 22 20 19 22 25 26 24 24 24 23 23 24 26 27 28 27 24 22 20 17 13 10 10 11 13 14 13 14 15 13 12 12 13 15 15 15 16 16 16 16 16 15 15 18 18 16 13
29 30 28 27 23 22 20 18 21 25 26 26 26 26 25 25 26 27 29 29 27 24 22 19 17 15 12 12 12 13 12 12 14 15 14 14 15 15 16 16 16 17 16 16 16 16 15 14 17 18 16 13
27 29 29 30 27 24 22 19 21 25 27 28 28 27 27 28 28 29 29 29 27 24 23 19 18 17 15 14 14 14 13 13 14 16 15 16 18 16 17 18 17 18 17 17 16 15 15 14 15 15 14 14
27 29 30 31 30 27 24 21 21 25 28 29 29 29 28 30 31 31 31 30 27 24 22 20 20 19 17 15 14 15 14 14 14 16 17 19 21 16 17 18 18 18 17 17 16 16 16 17 18 18 18 18
29 30 30 31 31 29 26 23 22 26 30 30 31 30 30 32 33 34 33 31 29 26 22 21 22 20 18 16 15 16 15 14 14 17 20 22 21 16 17 18 18 18 18 18 18 18 20 21 22 23 21 20
29 29 30 31 30 28 27 25 24 27 30 31 32 32 33 35 35 35 34 32 30 27 25 24 24 21 18 17 17 17 16 15 14 16 19 21 19 16 18 19 19 19 19 19 19 20 22 23 24 24 22 21
28 27 29 31 30 29 28 26 25 27 30 31 32 33 35 36 36 36 34 32 30 28 27 26 25 23 20 17 18 17 16 15 13 13 15 18 18 18 20 21 20 20 20 20 20 21 22 24 24 24 23 21
27 27 30 31 30 29 29 29 28 29 31 32 34 35 37 38 37 37 35 33 31 29 28 28 26 24 20 17 17 18 16 15 14 13 14 16 17 19 23 23 22 22 22 22 21 21 21 23 25 24 22 19
26 25 30 31 30 29 30 31 31 31 32 33 35 37 39 39 38 38 37 36 34 31 30 29 25 22 19 18 18 17 16 16 17 17 17 18 20 23 26 25 24 25 24 24 23 22 21 22 23 23 21 18
23 23 27 29 29 29 30 33 33 31 32 34 36 38 40 40 40 41 40 39 35 32 30 27 23 20 19 19 19 18 17 17 17 18 20 21 23 26 29 27 27 27 26 26 25 24 23 23 22 21 20 19
22 21 24 28 28 28 31 36 35 31 31 35 37 38 40 41 42 43 43 41 36 31 28 25 22 21 21 21 21 20 18 17 18 19 20 23 25 28 30 29 29 28 27 26 25 25 24 24 23 21 20 22
22 22 23 25 26 27 31 34 32 30 32 35 37 39 40 41 42 43 41 37 32 29 27 26 25 24 23 22 22 21 19 19 20 20 21 24 26 29 30 28 28 27 26 25 24 24 24 24 24 22 20 22
20 21 23 25 25 26 28 29 29 31 34 36 38 40 41 41 42 43 39 33 31 29 28 28 27 25 24 24 23 22 20 20 21 21 22 24 27 29 29 28 27 27 26 25 25 25 25 24 25 23 21 22
17 17 20 23 25 26 28 30 31 32 34 36 39 39 41 42 43 43 39 35 33 30 29 29 27 25 25 24 24 22 21 21 22 21 23 25 27 30 29 28 28 27 27 26 26 26 25 24 24 24 22 22
16 15 16 19 21 23 25 28 31 30 31 34 38 40 42 42 42 43 40 37 34 31 30 28 27 25 25 25 24 23 23 23 22 22 24 26 28 30 29 29 28 28 27 27 27 26 25 25 24 23 23 23
15 14 15 16 19 21 22 24 26 27 28 30 35 40 41 40 40 41 40 38 35 31 29 28 27 26 25 24 24 23 23 23 22 23 25 26 28 29 29 29 29 28 27 27 27 26 25 25 24 24 23 24
12 12 13 14 15 18 21 23 25 28 29 32 36 37 37 39 41 42 41 39 35 30 29 28 27 27 26 24 23 23 23 23 22 24 25 27 29 29 29 29 29 29 28 27 27 26 25 25 25 24 24 24
7 7 8 9 10 12 16 20 24 29 31 33 38 39 38 38 38 38 37 35 32 29 30 29 28 27 26 24 24 24 23 23 23 24 25 27 29 29 29 29 29 28 28 27 26 26 25 25 25 24 23 23
7 7 7 8 8 9 11 15 21 26 27 26 29 35 37 37 35 34 33 32 32 31 31 30 29 28 27 26 25 24 23 23 23 24 26 27 28 29 29 29 29 28 27 27 27 26 25 24 24 23 22 23
10 9 10 10 10 10 11 12 16 20 20 20 22 27 32 34 35 37 37 33 32 33 31 29 29 29 28 26 25 24 24 24 23 24 26 27 27 27 28 28 28 28 27 27 27 26 25 24 23 22 22 22
14 12 12 12 12 12 12 13 13 16 18 19 20 23 28 32 35 38 38 32 30 30 29 29 30 29 29 26 24 24 25 25 25 24 26 27 26 26 27 28 28 27 27 27 26 26 25 24 23 22 22 21
16 15 14 14 14 14 14 14 15 16 18 19 19 21 24 29 32 37 38 35 33 31 28 30 31 30 29 27 26 25 25 25 26 26 26 27 27 27 27 27 27 27 27 27 26 25 25 24 23 22 21 21
18 17 17 17 16 15 15 15 16 17 17 18 19 21 23 27 30 34 37 35 34 31 29 32 34 34 32 28 26 25 24 25 26 27 28 28 28 28 27 25 25 26 26 26 25 24 24 23 22 21 20 20
19 18 19 20 18 17 16 16 17 17 16 16 18 19 21 25 28 31 33 33 31 29 32 37 37 34 30 27 26 25 24 25 27 29 29 29 29 28 28 26 26 25 25 25 24 23 22 22 21 21 20 20
19 19 20 21 21 20 19 18 18 18 17 16 16 18 19 21 25 29 31 31 31 32 36 39 37 32 28 28 29 28 27 26 28 30 30 31 31 30 30 29 28 28 26 25 25 24 24 22 21 20 20 20
19 20 21 21 21 21 21 20 21 20 19 18 17 17 18 20 22 26 29 30 32 33 35 36 34 32 32 34 34 32 30 29 29 30 31 32 33 33 32 30 29 29 28 27 25 24 22 21 20 17 17 18
19 21 21 21 21 21 22 22 22 22 21 21 20 19 19 20 21 23 26 28 30 32 33 34 34 33 34 34 33 31 30 30 29 30 32 34 35 34 33 32 30 29 29 28 26 22 17 15 16 15 15 16
19 21 21 22 22 22 22 23 23 23 23 23 23 22 21 21 21 22 23 25 27 30 31 33 32 31 31 31 30 30 30 31 30 31 33 35 36 35 33 31 30 30 29 28 25 23 18 14 15 17 17 17
18 20 21 22 23 23 23 24 24 25 25 26 26 25 24 23 22 21 22 23 25 27 29 30 30 30 31 32 33 33 33 33 31 32 34 34 35 34 31 29 28 28 29 29 27 27 25 20 18 19 20 19
18 20 21 22 23 24 24 24 25 26 26 27 27 27 26 25 24 22 22 23 24 26 28 30 31 31 33 35 36 36 35 34 33 33 34 34 33 33 31 29 28 27 29 30 30 29 28 24 18 16 17 20
Wind_Direction
236 238 237 236 234 238 245 238 230 229 224 219 221 221 222 221 223 226 224 224 225 225 230 236 240 246 251 248 243 231 217 199 181 175 182 194 191 181 174 167 166 166 166 164 160 158 160 160 145 135 146 167
234 236 236 233 232 236 243 242 231 227 222 216 220 220 220 220 221 225 225 226 227 226 230 236 240 244 250 250 244 231 219 203 185 176 181 195 200 190 177 172 170 169 169 167 165 161 161 159 150 149 157 169
233 235 237 234 233 236 241 242 230 223 218 213 218 220 219 220 219 221 225 229 230 230 232 234 238 244 251 256 250 241 229 212 192 178 181 196 206 198 182 178 175 173 173 170 170 168 167 166 162 163 163 168
235 235 237 237 237 240 239 236 230 223 217 213 216 218 218 221 222 222 225 229 229 230 232 233 238 246 254 258 253 246 236 223 203 183 182 202 214 205 188 182 178 176 176 174 174 173 172 169 163 159 156 160
235 234 236 237 238 238 232 228 230 225 217 214 216 216 218 222 223 224 224 225 225 223 225 233 244 252 257 259 255 249 239 229 212 187 185 207 218 208 193 187 180 179 178 177 178 176 172 165 158 159 166 170
233 234 238 238 235 233 227 225 229 225 219 216 217 217 218 220 221 221 222 223 224 224 230 242 249 252 255 259 258 253 243 234 217 193 194 212 220 210 198 191 184 184 181 181 182 180 174 167 168 171 176 180
233 232 238 239 234 231 227 226 229 225 222 219 219 219 219 219 220 220 223 226 228 232 239 241 241 242 243 251 258 257 249 240 227 212 212 217 218 210 202 196 191 189 186 188 187 185 180 175 178 179 180 184
244 234 236 239 232 230 228 228 232 228 224 222 222 222 221 221 222 224 224 226 229 232 235 233 233 234 233 238 248 252 250 245 241 235 228 220 215 209 203 198 196 194 192 194 191 191 188 183 185 185 185 187
256 241 234 238 232 229 229 230 232 227 224 224 224 223 223 223 225 226 226 227 227 228 231 230 230 230 227 226 232 240 244 248 252 249 238 222 211 205 202 199 199 198 197 197 195 195 194 191 193 190 189 189
261 248 235 238 238 233 232 233 232 226 222 222 225 226 224 224 225 226 227 226 224 227 230 227 226 225 224 222 225 234 240 249 254 253 245 227 211 202 199 198 199 200 199 197 196 196 194 197 198 192 191 192
264 255 239 239 242 238 234 234 233 227 222 222 225 228 228 228 227 226 227 225 224 227 226 221 221 225 227 227 229 234 238 246 251 249 243 230 214 203 199 198 199 200 200 198 197 197 194 197 199 192 190 186
261 257 247 245 246 243 236 235 234 228 224 226 227 228 231 232 231 229 225 222 225 226 222 221 226 233 236 233 231 234 236 241 246 246 240 230 216 204 202 202 201 201 201 200 200 201 197 198 200 196 190 180
264 258 253 249 246 242 236 236 239 235 231 230 231 232 232 232 234 233 225 219 222 223 223 227 233 238 238 234 233 236 238 238 241 244 239 229 216 206 204 205 205 205 204 203 203 205 203 203 204 201 197 185
278 267 254 247 245 246 243 245 244 235 230 230 232 235 235 235 234 230 224 224 227 227 230 232 234 237 234 234 237 237 237 237 238 239 234 225 213 206 205 205 207 207 206 205 204 206 206 208 208 204 199 190
285 282 269 256 252 252 253 257 246 226 218 219 223 228 232 235 233 228 227 230 232 232 234 234 234 235 233 234 236 236 235 236 235 230 225 220 210 205 206 206 208 209 209 208 206 207 208 210 212 208 201 194
280 285 286 276 267 261 258 262 252 228 216 215 216 218 220 222 224 227 230 230 232 234 233 234 236 233 230 231 232 234 234 233 229 222 219 214 208 207 207 207 209 210 210 210 209 209 209 210 212 210 203 198
279 277 283 282 278 272 266 265 257 243 235 231 226 221 217 216 218 223 228 229 229 232 233 233 232 229 227 229 232 234 233 231 224 217 215 210 208 208 208 208 208 208 208 210 210 209 210 210 210 209 204 201
273 272 274 276 275 272 266 262 260 255 252 247 240 235 230 224 219 217 220 224 225 228 232 229 224 223 225 227 231 234 231 227 220 215 214 210 208 208 208 209 209 208 207 208 210 210 210 210 208 207 205 204
265 267 267 271 271 274 269 262 258 253 251 247 239 236 238 234 227 219 213 215 220 224 224 220 218 219 222 224 225 226 224 221 217 213 213 211 208 206 207 209 210 210 208 208 209 208 208 207 207 206 206 206
267 263 264 271 272 278 275 270 262 252 251 253 243 236 238 240 237 230 221 215 217 220 217 214 215 218 219 220 219 217 218 217 216 213 209 209 209 208 207 208 209 208 208 208 206 204 204 203 204 204 205 206
267 264 265 270 272 278 276 273 268 258 258 266 259 248 245 245 240 231 226 221 214 213 215 217 221 225 225 224 219 215 215 214 213 213 210 207 208 211 211 209 208 206 205 205 203 201 201 201 201 203 206 207
273 271 269 268 268 271 271 268 264 262 264 267 263 255 250 249 245 236 228 225 220 216 218 223 228 232 234 234 229 221 217 213 209 208 210 208 205 208 212 210 207 206 204 202 200 199 198 200 201 203 207 209
275 275 271 268 267 265 265 265 262 263 265 266 263 258 254 247 245 242 233 223 218 221 226 231 233 234 234 235 233 228 225 221 212 205 205 207 204 203 206 208 207 206 205 202 200 200 200 199 201 203 205 207
270 272 270 267 266 263 262 263 263 265 266 267 264 259 257 250 243 241 238 225 212 217 230 233 232 231 228 227 227 229 232 228 220 211 206 206 206 204 203 203 206 207 206 204 200 199 200 199 199 201 203 207
263 266 268 269 269 268 266 265 264 265 265 267 267 262 258 254 246 239 237 231 222 228 237 233 228 226 224 224 226 228 230 227 221 216 213 211 210 212 211 207 207 210 211 210 204 198 197 200 202 205 207 209
262 263 264 266 270 274 274 273 271 267 263 259 260 262 260 257 251 243 236 231 233 239 239 229 224 224 224 226 227 227 226 221 217 215 215 215 213 213 215 213 209 208 208 209 210 206 199 197 199 204 208 208
266 264 264 264 268 273 275 275 273 270 266 260 254 254 257 257 254 249 242 239 243 247 242 232 224 223 225 225 223 222 221 217 213 213 215 216 215 212 212 212 210 208 206 205 205 204 200 196 193 195 202 203
271 269 266 265 266 269 271 271 270 269 267 263 256 250 250 255 256 253 251 251 252 251 245 236 227 224 225 225 222 221 220 216 214 214 214 214 215 214 212 211 210 208 208 208 204 198 194 198 197 199 204 203
275 274 272 269 266 266 266 265 264 263 263 262 258 252 247 249 253 256 257 258 257 252 243 234 231 231 231 229 226 227 226 221 218 215 215 214 214 215 215 215 215 212 212 213 212 210 206 201 205 214 215 210
274 275 275 273 270 268 266 263 262 260 259 258 256 253 249 247 248 251 255 256 255 252 244 237 235 235 235 232 228 227 226 223 220 217 216 216 216 216 216 219 223 223 221 219 218 220 220 217 218 220 214 207
276 277 277 275 274 272 269 267 265 263 262 259 256 253 249 247 245 245 248 250 249 248 245 242 237 232 229 229 227 226 224 222 221 219 217 217 218 220 220 222 225 227 227 223 218 219 220 220 221 220 213 209